Location: Palombina Nuova
(43.6167°N, 13.4000°E)
Time: 03:01:25
(UTC+00:00)

CZ-4B DEB - Pass Details

Date: 17 February 2020
Orbit: 840 x 862 km, 99.1° (Epoch: 05 April)

Event Time Altitude Azimuth Distance (km) Brightness Sun altitude
Rises 04:55:18 0° 11° (N) 3,424 7.5 -12.9°
Reaches altitude 10° 04:57:42 10° 9° (N) 2,481 6.7 -12.5°
Maximum altitude 05:03:08 65° 289° (WNW) 927 4.2 -11.5°
Drops below altitude 10° 05:08:30 10° 208° (SSW) 2,453 6.4 -10.5°
Sets 05:10:52 0° 205° (SSW) 3,382 7.1 -10.1°
